Voltar ao catálogo

DELTA 1 DEB

AtivoPO
NORAD 37635·DEBRIS·🇺🇸 United States

Lançado Mar 5, 1978 de Vandenberg Space Force Base

Loading…

Próximas Passagens (próximas 24 horas)

TLE

AtualizadoSource: Space-Track

Época: Sep 13, 2026, 08:50 UTC

1 37635U 78026HW  26256.36837906  .00000790  00000-0  34129-3 0  9998
2 37635  99.1754 285.4035 0047415 177.8876 194.9479 14.26850632684382

Acompanhe DELTA 1 DEB em tempo real com AllMySat

Download on the App Store